| time (UTC) | temp F | wind direction | speed MPH | gust MPH | rain 1hr in | rain 24hr in | rain mn in | humidity % | barometer mb |
| 20260509043328 | 73 | 174 | 2.0 | 6.0 | 0.00 | 0.00 | 0.00 | 91 | 1007.7 |
| 20260509042306 | 73 | 164 | 2.0 | 6.0 | 0.00 | 0.00 | 0.00 | 90 | 1007.8 |
| 20260509041306 | 73 | 132 | 3.0 | 7.0 | 0.00 | 0.00 | 0.00 | 90 | 1007.9 |
| 20260509040323 | 73 | 173 | 3.0 | 9.0 | 0.00 | 0.00 | 0.00 | 89 | 1008.1 |
| 20260509034131 | 74 | 179 | 3.0 | 6.0 | 0.00 | 0.00 | 0.00 | 88 | 1008.2 |
| 20260509033111 | 74 | 149 | 2.0 | 5.0 | 0.00 | 0.00 | 0.00 | 88 | 1008.2 |
| 20260509025740 | 74 | 170 | 3.0 | 7.0 | 0.00 | 0.00 | 0.00 | 87 | 1007.6 |
| 20260509024727 | 74 | 165 | 2.0 | 6.0 | 0.00 | 0.00 | 0.00 | 87 | 1007.7 |
| 20260509023731 | 74 | 157 | 1.0 | 4.0 | 0.00 | 0.00 | 0.00 | 86 | 1007.6 |
| 20260509022731 | 74 | 143 | 2.0 | 4.0 | 0.00 | 0.00 | 0.00 | 87 | 1007.7 |
| 20260509021722 | 74 | 181 | 1.0 | 6.0 | 0.00 | 0.00 | 0.00 | 86 | 1007.5 |
| 20260509020713 | 74 | 163 | 2.0 | 6.0 | 0.00 | 0.00 | 0.00 | 86 | 1007.3 |
| 20260509015723 | 74 | 112 | 2.0 | 7.0 | 0.00 | 0.00 | 0.00 | 85 | 1007.0 |
| 20260509014719 | 75 | 140 | 3.0 | 8.0 | 0.00 | 0.00 | 0.00 | 84 | 1006.8 |
| 20260509012620 | 76 | 98 | 2.0 | 7.0 | 0.00 | 0.00 | 0.00 | 83 | 1006.9 |
| 20260509011608 | 76 | 134 | 2.0 | 4.0 | 0.00 | 0.00 | 0.00 | 82 | 1006.8 |
| 20260509010622 | 76 | 149 | 1.0 | 8.0 | 0.00 | 0.00 | 0.00 | 82 | 1006.9 |
| 20260509005634 | 77 | 119 | 1.0 | 8.0 | 0.00 | 0.00 | 0.00 | 81 | 1006.9 |
| 20260509003515 | 77 | 171 | 2.0 | 6.0 | 0.00 | 0.00 | 0.00 | 79 | 1006.8 |
| 20260509002446 | 77 | 177 | 1.0 | 6.0 | 0.00 | 0.00 | 0.00 | 79 | 1006.8 |
| 20260509001428 | 78 | 118 | 2.0 | 6.0 | 0.00 | 0.00 | 0.00 | 78 | 1006.9 |
| 20260508234145 | 78 | 144 | 3.0 | 8.0 | 0.00 | 0.00 | 0.00 | 77 | 1006.9 |
| 20260508233145 | 78 | 81 | 3.0 | 7.0 | 0.00 | 0.00 | 0.00 | 76 | 1006.8 |
| 20260508231033 | 79 | 210 | 3.0 | 8.0 | 0.00 | 0.00 | 0.00 | 75 | 1006.9 |
| 20260508230014 | 79 | 172 | 4.0 | 10.0 | 0.00 | 0.00 | 0.00 | 76 | 1006.9 |
| 20260508224952 | 79 | 196 | 3.0 | 10.0 | 0.00 | 0.00 | 0.00 | 74 | 1007.0 |
| 20260508223945 | 79 | 172 | 4.0 | 10.0 | 0.00 | 0.00 | 0.00 | 74 | 1006.9 |
| 20260508222940 | 79 | 188 | 3.0 | 9.0 | 0.00 | 0.00 | 0.00 | 74 | 1006.9 |
| 20260508221906 | 79 | 167 | 4.0 | 11.0 | 0.00 | 0.00 | 0.00 | 74 | 1006.9 |
| 20260508220853 | 80 | 163 | 3.0 | 10.0 | 0.00 | 0.00 | 0.00 | 73 | 1007.1 |
| 20260508214729 | 81 | 174 | 4.0 | 12.0 | 0.00 | 0.00 | 0.00 | 72 | 1007.1 |
| 20260508213703 | 81 | 189 | 3.0 | 9.0 | 0.00 | 0.00 | 0.00 | 70 | 1007.2 |
| 20260508212711 | 82 | 145 | 3.0 | 10.0 | 0.00 | 0.00 | 0.00 | 71 | 1007.2 |
| 20260508210600 | 80 | 92 | 3.0 | 10.0 | 0.00 | 0.00 | 0.00 | 73 | 1007.6 |
| 20260508205528 | 79 | 126 | 3.0 | 8.0 | 0.00 | 0.00 | 0.00 | 73 | 1007.9 |
| 20260508204545 | 79 | 160 | 2.0 | 7.0 | 0.00 | 0.00 | 0.00 | 73 | 1007.9 |
| 20260508203554 | 80 | 136 | 3.0 | 8.0 | 0.00 | 0.00 | 0.00 | 73 | 1008.0 |
| 20260508202541 | 79 | 129 | 3.0 | 8.0 | 0.00 | 0.00 | 0.00 | 73 | 1008.1 |
| 20260508201524 | 79 | 56 | 2.0 | 11.0 | 0.00 | 0.00 | 0.00 | 73 | 1008.2 |
| 20260508200545 | 80 | 81 | 3.0 | 11.0 | 0.00 | 0.00 | 0.00 | 71 | 1008.3 |
| 20260508193228 | 80 | 112 | 2.0 | 8.0 | 0.00 | 0.00 | 0.00 | 71 | 1008.7 |
| 20260508185841 | 77 | 90 | 3.0 | 8.0 | 0.00 | 0.00 | 0.00 | 74 | 1009.0 |
| 20260508184855 | 78 | 142 | 2.0 | 8.0 | 0.00 | 0.00 | 0.00 | 72 | 1009.2 |
| 20260508183909 | 78 | 128 | 2.0 | 8.0 | 0.00 | 0.00 | 0.00 | 72 | 1009.2 |
| 20260508182914 | 78 | 195 | 2.0 | 9.0 | 0.00 | 0.00 | 0.00 | 71 | 1009.5 |
| 20260508181846 | 78 | 161 | 3.0 | 9.0 | 0.00 | 0.00 | 0.00 | 71 | 1009.7 |
| 20260508180857 | 77 | 152 | 2.0 | 8.0 | 0.00 | 0.00 | 0.00 | 73 | 1009.8 |
| 20260508175848 | 77 | 73 | 2.0 | 8.0 | 0.00 | 0.00 | 0.00 | 73 | 1010.0 |
| 20260508174906 | 77 | 47 | 1.0 | 4.0 | 0.00 | 0.00 | 0.00 | 72 | 1010.1 |
| 20260508173836 | 77 | 62 | 1.0 | 5.0 | 0.00 | 0.00 | 0.00 | 71 | 1010.1 |
| 20260508171716 | 79 | 71 | 0.0 | 2.0 | 0.00 | 0.00 | 0.00 | 70 | 1010.2 |
| 20260508170719 | 79 | 250 | 0.0 | 2.0 | 0.00 | 0.00 | 0.00 | 71 | 1010.3 |
| 20260508165702 | 79 | 165 | 0.0 | 3.0 | 0.00 | 0.00 | 0.00 | 72 | 1010.4 |
| 20260508164718 | 78 | 0 | 0.0 | 3.0 | 0.00 | 0.00 | 0.00 | 73 | 1010.5 |
| 20260508163643 | 77 | 287 | 0.0 | 3.0 | 0.00 | 0.00 | 0.00 | 72 | 1010.6 |
| 20260508162655 | 76 | 251 | 0.0 | 3.0 | 0.00 | 0.00 | 0.00 | 75 | 1010.8 |
| 20260508161628 | 74 | 254 | 0.0 | 3.0 | 0.00 | 0.00 | 0.00 | 76 | 1011.0 |
| 20260508160643 | 72 | 255 | 0.0 | 2.0 | 0.00 | 0.00 | 0.00 | 77 | 1011.2 |
| 20260508155653 | 70 | 97 | 0.0 | 0.0 | 0.00 | 0.00 | 0.00 | 79 | 1011.3 |
| 20260508154709 | 69 | 122 | 0.0 | 3.0 | 0.00 | 0.00 | 0.00 | 79 | 1011.4 |
| 20260508153722 | 69 | 173 | 0.0 | 3.0 | 0.00 | 0.00 | 0.00 | 78 | 1011.6 |
| 20260508152715 | 69 | 254 | 0.0 | 2.0 | 0.00 | 0.00 | 0.00 | 78 | 1011.8 |
| 20260508151652 | 68 | 212 | 0.0 | 4.0 | 0.00 | 0.00 | 0.00 | 78 | 1011.9 |
| 20260508150714 | 67 | 123 | 1.0 | 5.0 | 0.00 | 0.00 | 0.00 | 79 | 1012.0 |
| 20260508145735 | 67 | 195 | 1.0 | 5.0 | 0.00 | 0.00 | 0.00 | 79 | 1012.2 |
| 20260508144724 | 66 | 146 | 0.0 | 3.0 | 0.00 | 0.00 | 0.00 | 80 | 1012.1 |
| 20260508142556 | 64 | 123 | 1.0 | 4.0 | 0.00 | 0.00 | 0.00 | 80 | 1012.1 |
| 20260508141522 | 64 | 89 | 1.0 | 5.0 | 0.00 | 0.00 | 0.00 | 82 | 1012.0 |
| 20260508135417 | 64 | 10 | 0.0 | 4.0 | 0.00 | 0.00 | 0.00 | 82 | 1012.0 |
| 20260508134345 | 63 | 63 | 0.0 | 4.0 | 0.00 | 0.00 | 0.00 | 82 | 1012.1 |
| 20260508133324 | 63 | 38 | 1.0 | 6.0 | 0.00 | 0.00 | 0.00 | 83 | 1012.0 |
| 20260508132313 | 62 | 58 | 1.0 | 6.0 | 0.00 | 0.00 | 0.00 | 83 | 1012.0 |
| 20260508131311 | 62 | 51 | 0.0 | 3.0 | 0.00 | 0.00 | 0.00 | 84 | 1012.2 |
| 20260508130244 | 62 | 355 | 1.0 | 5.0 | 0.00 | 0.00 | 0.00 | 84 | 1012.1 |
| 20260508125254 | 61 | 347 | 0.0 | 5.0 | 0.00 | 0.00 | 0.00 | 85 | 1012.2 |
| 20260508124258 | 61 | 42 | 0.0 | 2.0 | 0.00 | 0.00 | 0.00 | 86 | 1012.3 |
| 20260508122047 | 61 | 13 | 0.0 | 3.0 | 0.00 | 0.00 | 0.00 | 86 | 1012.2 |
| 20260508121108 | 61 | 355 | 0.0 | 1.0 | 0.00 | 0.00 | 0.00 | 86 | 1012.3 |
| 20260508120131 | 61 | 51 | 0.0 | 0.0 | 0.00 | 0.00 | 0.00 | 86 | 1012.4 |
| 20260508115147 | 61 | 33 | 0.0 | 2.0 | 0.00 | 0.00 | 0.00 | 85 | 1012.5 |
| 20260508114116 | 62 | 5 | 0.0 | 2.0 | 0.00 | 0.00 | 0.00 | 84 | 1012.7 |
| 20260508113101 | 62 | 330 | 0.0 | 0.0 | 0.00 | 0.00 | 0.00 | 83 | 1012.7 |
| 20260508112123 | 62 | 330 | 0.0 | 0.0 | 0.00 | 0.00 | 0.00 | 83 | 1012.8 |
| 20260508111137 | 62 | 330 | 0.0 | 0.0 | 0.00 | 0.00 | 0.00 | 82 | 1012.7 |
| 20260508110109 | 61 | 330 | 0.0 | 0.0 | 0.00 | 0.00 | 0.00 | 82 | 1012.7 |
| 20260508105049 | 61 | 11 | 0.0 | 4.0 | 0.00 | 0.00 | 0.00 | 82 | 1012.5 |
| 20260508104023 | 61 | 13 | 1.0 | 4.0 | 0.00 | 0.00 | 0.00 | 83 | 1012.6 |
| 20260508103014 | 61 | 355 | 1.0 | 7.0 | 0.00 | 0.00 | 0.00 | 83 | 1012.5 |
| 20260508101949 | 61 | 350 | 1.0 | 7.0 | 0.00 | 0.00 | 0.00 | 83 | 1012.6 |
| 20260508100925 | 61 | 28 | 1.0 | 4.0 | 0.00 | 0.00 | 0.00 | 84 | 1012.4 |
| 20260508095918 | 61 | 355 | 0.0 | 3.0 | 0.00 | 0.00 | 0.00 | 85 | 1012.3 |
| 20260508094930 | 61 | 9 | 0.0 | 3.0 | 0.00 | 0.00 | 0.00 | 85 | 1012.7 |
| 20260508093950 | 61 | 24 | 0.0 | 3.0 | 0.00 | 0.00 | 0.00 | 85 | 1012.4 |
| 20260508092926 | 61 | 10 | 0.0 | 2.0 | 0.00 | 0.00 | 0.00 | 84 | 1012.7 |
| 20260508084403 | 62 | 26 | 0.0 | 0.0 | 0.00 | 0.00 | 0.00 | 81 | 1012.4 |
| 20260508083405 | 62 | 26 | 0.0 | 0.0 | 0.00 | 0.00 | 0.00 | 81 | 1012.6 |
| 20260508082345 | 62 | 26 | 0.0 | 0.0 | 0.00 | 0.00 | 0.00 | 80 | 1012.6 |
| 20260508081358 | 62 | 37 | 0.0 | 0.0 | 0.00 | 0.00 | 0.00 | 80 | 1012.8 |
| 20260508080409 | 62 | 37 | 0.0 | 0.0 | 0.00 | 0.00 | 0.00 | 80 | 1012.9 |
| 20260508075406 | 62 | 37 | 0.0 | 0.0 | 0.00 | 0.00 | 0.00 | 80 | 1012.9 |
| 20260508074337 | 62 | 37 | 0.0 | 0.0 | 0.00 | 0.00 | 0.00 | 80 | 1012.6 |
| 20260508073334 | 62 | 37 | 0.0 | 0.0 | 0.00 | 0.00 | 0.00 | 80 | 1012.9 |
| 20260508072318 | 62 | 91 | 0.0 | 3.0 | 0.00 | 0.00 | 0.00 | 79 | 1012.8 |
| 20260508071315 | 62 | 22 | 0.0 | 2.0 | 0.00 | 0.00 | 0.00 | 80 | 1012.8 |
| 20260508070337 | 62 | 49 | 0.0 | 3.0 | 0.00 | 0.00 | 0.00 | 80 | 1012.7 |
| 20260508065337 | 62 | 17 | 0.0 | 3.0 | 0.00 | 0.00 | 0.00 | 80 | 1012.7 |
| 20260508064351 | 62 | 53 | 0.0 | 2.0 | 0.00 | 0.00 | 0.00 | 81 | 1012.9 |
| 20260508063322 | 61 | 38 | 0.0 | 0.0 | 0.00 | 0.00 | 0.00 | 81 | 1013.5 |
| 20260508062305 | 61 | 38 | 0.0 | 1.0 | 0.00 | 0.00 | 0.00 | 80 | 1013.7 |
| 20260508061254 | 61 | 38 | 0.0 | 0.0 | 0.00 | 0.00 | 0.00 | 80 | 1013.6 |
| 20260508060317 | 61 | 46 | 0.0 | 0.0 | 0.00 | 0.00 | 0.00 | 80 | 1013.5 |
| 20260508055257 | 61 | 42 | 0.0 | 3.0 | 0.00 | 0.00 | 0.00 | 80 | 1013.3 |
| 20260508054230 | 61 | 45 | 0.0 | 2.0 | 0.00 | 0.00 | 0.00 | 80 | 1013.3 |
| 20260508053155 | 61 | 5 | 0.0 | 0.0 | 0.00 | 0.00 | 0.00 | 81 | 1013.7 |
| 20260508052148 | 61 | 24 | 0.0 | 0.0 | 0.00 | 0.00 | 0.00 | 80 | 1013.7 |
| 20260508051125 | 61 | 5 | 0.0 | 4.0 | 0.00 | 0.00 | 0.00 | 80 | 1013.6 |
| 20260508050149 | 61 | 317 | 0.0 | 4.0 | 0.00 | 0.00 | 0.00 | 80 | 1013.6 |
| 20260508045142 | 61 | 38 | 0.0 | 5.0 | 0.00 | 0.00 | 0.00 | 80 | 1013.5 |
| 20260508044151 | 61 | 37 | 1.0 | 5.0 | 0.00 | 0.00 | 0.00 | 79 | 1014.0 |